CW4185 Weather Reports


Display with metric or nautical units.
time (UTC)temp
F
wind
direction
speed
MPH
gust
MPH
rain 1hr
in
rain 24hr
in
rain mn
in
humidity
%
barometer
mb
20260903033646 82 249 0.0 1.0 0.00 0.00 0.68 90 1015.2
20260903033146 82 209 0.0 1.0 0.00 0.00 0.68 89 1015.6
20260903032647 83 149 0.0 0.0 0.00 0.00 0.68 88 1015.6
20260903032146 83 89 0.0 1.0 0.00 0.00 0.68 89 1015.2
20260903031646 82 144 0.0 2.0 0.00 0.00 0.68 90 1015.6
20260903031146 82 224 0.0 0.0 0.00 0.00 0.68 90 1015.6
20260903030647 82 224 0.0 1.0 0.00 0.00 0.68 90 1015.2
20260903030148 82 171 1.0 2.0 0.00 0.00 0.68 89 1015.2
20260903025646 82 195 0.0 1.0 0.00 0.00 0.68 89 1015.2
20260903025146 83 217 0.0 0.0 0.00 0.00 0.68 89 1015.6
20260903024647 83 180 0.0 0.0 0.00 0.00 0.68 88 1015.6
20260903024146 83 180 2.0 2.0 0.00 0.00 0.68 89 1015.6
20260903023646 83 175 2.0 2.0 0.00 0.00 0.68 89 1015.2
20260903023148 83 179 1.0 2.0 0.00 0.00 0.68 88 1015.2
20260903022648 83 168 0.0 2.0 0.00 0.00 0.68 88 1015.2
20260903022146 83 201 1.0 2.0 0.00 0.00 0.68 88 1015.2
20260903021646 83 200 2.0 2.0 0.00 0.00 0.68 88 1015.2
20260903021147 83 183 1.0 2.0 0.00 0.00 0.68 87 1015.2
20260903020647 83 202 1.0 2.0 0.00 0.00 0.68 87 1015.2
20260903020147 83 184 1.0 2.0 0.00 0.00 0.68 87 1015.2
20260903015647 83 173 2.0 2.0 0.00 0.00 0.68 86 1014.9
20260903015149 83 193 0.0 2.0 0.00 0.00 0.68 86 1014.9
20260903014646 83 184 0.0 2.0 0.00 0.00 0.68 86 1014.9
20260903014147 83 180 2.0 2.0 0.00 0.00 0.68 86 1014.9
20260903013648 84 165 2.0 3.0 0.00 0.00 0.68 85 1014.9
20260903013148 84 168 2.0 3.0 0.00 0.00 0.68 85 1014.6
20260903012651 84 169 1.0 2.0 0.00 0.00 0.68 85 1014.6
20260903012147 83 161 2.0 3.0 0.00 0.00 0.68 86 1014.6
20260903011649 84 179 1.0 3.0 0.00 0.00 0.68 85 1014.6
20260903011147 84 180 1.0 2.0 0.00 0.00 0.68 84 1014.6
20260903010647 84 168 2.0 3.0 0.00 0.00 0.68 84 1014.2
20260903010148 84 187 2.0 2.0 0.00 0.00 0.68 85 1014.6
20260903005646 84 210 2.0 2.0 0.00 0.00 0.68 85 1014.2
20260903005146 84 207 2.0 2.0 0.00 0.00 0.68 84 1014.2
20260903004647 84 212 2.0 2.0 0.00 0.00 0.68 84 1014.2
20260903004146 84 196 2.0 3.0 0.00 0.00 0.68 83 1014.2
20260903003647 84 175 3.0 4.0 0.00 0.00 0.68 83 1014.2
20260903003147 84 177 2.0 3.0 0.00 0.00 0.68 83 1014.2
20260903002647 84 199 2.0 3.0 0.00 0.00 0.68 82 1014.2
20260903002147 84 167 2.0 3.0 0.00 0.00 0.68 82 1014.2
20260903001647 85 178 2.0 3.0 0.00 0.00 0.68 82 1014.2
20260903001147 85 191 3.0 4.0 0.00 0.00 0.68 82 1014.2
20260903000647 85 182 3.0 3.0 0.00 0.00 0.68 82 1014.2
20260903000146 85 214 4.0 5.0 0.00 0.00 0.68 81 1014.2
20260902235646 85 185 2.0 6.0 0.00 0.00 0.68 80 1014.2
20260902235147 85 186 3.0 6.0 0.00 0.00 0.68 81 1014.2
20260902234646 85 181 3.0 5.0 0.00 0.00 0.68 80 1014.2
20260902234146 86 213 3.0 5.0 0.00 0.00 0.68 80 1014.2
20260902233646 86 242 2.0 4.0 0.00 0.00 0.68 79 1014.2
20260902233146 86 197 3.0 4.0 0.00 0.00 0.68 79 1014.6
20260902232646 86 191 4.0 6.0 0.00 0.00 0.68 78 1014.2
20260902232147 86 194 4.0 4.0 0.00 0.00 0.68 78 1014.6
20260902231647 86 198 5.0 6.0 0.00 0.00 0.68 78 1014.2
20260902231146 86 193 3.0 4.0 0.00 0.00 0.68 77 1014.2
20260902230647 86 177 5.0 6.0 0.00 0.00 0.68 76 1014.2
20260902230146 87 169 2.0 6.0 0.00 0.00 0.68 76 1014.2
20260902225647 87 174 2.0 4.0 0.00 0.00 0.68 76 1014.2
20260902225146 87 172 5.0 7.0 0.00 0.00 0.68 76 1014.2
20260902224646 87 192 2.0 5.0 0.00 0.00 0.68 76 1014.2
20260902224147 87 237 3.0 5.0 0.00 0.00 0.68 76 1014.2
20260902223646 87 158 2.0 7.0 0.00 0.00 0.68 74 1014.2
20260902223147 87 210 5.0 6.0 0.00 0.00 0.68 74 1014.2
20260902222648 87 197 4.0 6.0 0.00 0.00 0.68 74 1014.2
20260902222147 87 208 7.0 9.0 0.00 0.00 0.68 75 1014.2
20260902221646 87 224 6.0 8.0 0.00 0.00 0.68 75 1014.6
20260902221146 87 205 4.0 6.0 0.00 0.00 0.68 74 1014.6
20260902220647 88 198 4.0 6.0 0.00 0.00 0.68 75 1014.9
20260902220146 88 254 3.0 4.0 0.00 0.00 0.68 73 1014.9
20260902215647 87 257 2.0 4.0 0.00 0.00 0.68 76 1014.6
20260902215146 86 339 0.0 3.0 0.00 0.00 0.68 75 1014.9
20260902214647 85 269 0.0 3.0 0.00 0.00 0.68 81 1014.6
20260902214150 84 337 0.0 4.0 0.00 0.00 0.68 82 1014.9
20260902213648 83 314 0.0 3.0 0.00 0.00 0.68 87 1014.9
20260902213146 82 261 2.0 3.0 0.02 0.00 0.68 90 1015.2
20260902212646 82 227 3.0 5.0 0.05 0.00 0.68 90 1014.9
20260902212146 81 274 5.0 6.0 0.02 0.00 0.67 91 1014.9
20260902211646 80 326 4.0 5.0 0.02 0.00 0.67 92 1014.9
20260902211147 80 303 3.0 5.0 0.02 0.00 0.67 91 1015.2
20260902210648 79 319 4.0 9.0 0.00 0.00 0.67 90 1014.9
20260902210147 79 299 5.0 9.0 0.02 0.00 0.67 91 1015.2
20260902205646 79 283 5.0 7.0 0.02 0.00 0.67 91 1015.6
20260902205146 78 325 0.0 5.0 0.00 0.00 0.66 92 1015.6
20260902204646 78 15 2.0 7.0 0.05 0.00 0.66 96 1015.6
20260902204147 78 289 6.0 9.0 0.12 0.00 0.66 96 1015.2
20260902203646 78 305 8.0 9.0 0.28 0.00 0.65 97 1015.6
20260902203147 78 298 8.0 12.0 0.76 0.00 0.64 97 1015.6
20260902202646 78 289 8.0 9.0 1.61 0.00 0.60 97 1015.9
20260902202148 78 259 3.0 4.0 0.94 0.00 0.49 97 1015.9
20260902201646 78 238 5.0 8.0 0.07 0.00 0.33 96 1015.9
20260902201147 78 279 11.0 14.0 0.97 0.00 0.33 97 1015.6
20260902200647 78 269 9.0 14.0 1.84 0.00 0.31 97 1015.2
20260902200146 80 201 12.0 18.0 1.11 0.00 0.18 94 1015.6
20260902195646 82 176 7.0 15.0 0.00 0.00 0.00 87 1015.6
20260902195146 84 209 9.0 15.0 0.00 0.00 0.00 85 1015.2
20260902194646 84 213 7.0 16.0 0.00 0.00 0.00 83 1015.6
20260902194146 84 244 5.0 13.0 0.00 0.00 0.00 83 1015.2
20260902193646 85 206 7.0 13.0 0.00 0.00 0.00 81 1015.6
20260902193146 86 188 8.0 10.0 0.00 0.00 0.00 80 1015.6
20260902192647 86 197 8.0 13.0 0.00 0.00 0.00 78 1015.6
20260902192147 90 202 7.0 13.0 0.00 0.00 0.00 69 1015.6
20260902191648 93 175 10.0 10.0 0.00 0.00 0.00 62 1015.6
20260902191150 94 129 1.0 8.0 0.00 0.00 0.00 61 1015.2
20260902190647 94 173 3.0 5.0 0.00 0.00 0.00 61 1015.2
20260902190146 94 162 5.0 9.0 0.00 0.00 0.00 59 1015.6
20260902185646 94 198 2.0 4.0 0.00 0.00 0.00 60 1015.6
20260902185147 93 55 1.0 5.0 0.00 0.00 0.00 60 1015.9
20260902184646 93 58 4.0 9.0 0.00 0.00 0.00 58 1015.9
20260902184146 93 50 5.0 7.0 0.00 0.00 0.00 60 1015.9
20260902183647 92 65 4.0 5.0 0.00 0.00 0.00 62 1015.9
20260902183146 93 96 5.0 6.0 0.00 0.00 0.00 62 1016.3
20260902182646 92 79 4.0 6.0 0.00 0.00 0.00 60 1016.3
20260902182149 92 24 5.0 9.0 0.00 0.00 0.00 60 1016.3
20260902181647 92 58 4.0 8.0 0.00 0.00 0.00 59 1015.9
20260902181148 92 52 2.0 6.0 0.00 0.00 0.00 63 1015.9
20260902180647 92 174 2.0 6.0 0.00 0.00 0.00 64 1015.9
20260902180148 91 47 4.0 10.0 0.00 0.00 0.00 63 1016.3
20260902175648 91 28 5.0 9.0 0.00 0.00 0.00 65 1016.3
20260902175147 91 70 7.0 8.0 0.00 0.00 0.00 65 1015.9
20260902174647 91 78 6.0 9.0 0.00 0.00 0.00 67 1016.3
20260902173714 91 40 6.0 11.0 0.00 0.00 0.00 67 1016.6
20260902173147 90 27 6.0 10.0 0.00 0.00 0.00 68 1016.6
20260902172649 91 19 6.0 10.0 0.00 0.00 0.00 68 1016.6
20260902172147 91 54 5.0 10.0 0.00 0.00 0.00 67 1016.6
20260902171647 91 44 6.0 8.0 0.00 0.00 0.00 69 1016.9
20260902171147 90 79 5.0 9.0 0.00 0.00 0.00 69 1016.9
20260902170646 90 46 6.0 7.0 0.00 0.00 0.00 70 1016.9
20260902170146 90 32 5.0 7.0 0.00 0.00 0.00 71 1016.9
20260902165647 89 44 4.0 11.0 0.00 0.00 0.00 72 1017.3
20260902165150 89 58 4.0 7.0 0.00 0.00 0.00 72 1016.9
20260902164646 89 28 3.0 5.0 0.00 0.00 0.00 75 1016.9
20260902164146 90 358 2.0 6.0 0.00 0.00 0.00 72 1017.3
20260902163649 90 324 3.0 7.0 0.00 0.00 0.00 72 1017.3
20260902163146 90 16 5.0 7.0 0.00 0.00 0.00 72 1017.3
20260902162648 90 45 0.0 8.0 0.00 0.00 0.00 72 1017.3
20260902162150 90 13 5.0 9.0 0.00 0.00 0.00 71 1017.6
20260902161646 90 39 5.0 8.0 0.00 0.00 0.00 72 1017.6
20260902161147 89 43 4.0 9.0 0.00 0.00 0.00 72 1017.3
20260902160646 89 25 0.0 5.0 0.00 0.00 0.00 73 1017.3
20260902160147 90 34 5.0 6.0 0.00 0.00 0.00 72 1017.3
20260902155646 89 56 4.0 6.0 0.00 0.00 0.00 70 1017.3
20260902155146 89 64 4.0 6.0 0.00 0.00 0.00 70 1017.3
20260902154647 90 80 4.0 7.0 0.00 0.00 0.00 70 1017.6
20260902154147 90 334 2.0 8.0 0.00 0.00 0.00 70 1017.3
20260902153205 90 54 3.0 6.0 0.00 0.00 0.00 70 1017.6
20260902152647 90 52 3.0 6.0 0.00 0.00 0.00 71 1017.3
20260902152148 89 35 2.0 5.0 0.00 0.00 0.00 73 1017.3
20260902151647 88 166 3.0 6.0 0.00 0.00 0.00 76 1017.3
20260902151147 88 35 5.0 7.0 0.00 0.00 0.00 74 1017.3
20260902150647 88 33 5.0 7.0 0.00 0.00 0.00 75 1017.3
20260902150147 88 56 3.0 6.0 0.00 0.00 0.00 76 1017.3
20260902145647 87 42 1.0 7.0 0.00 0.00 0.00 78 1017.3
20260902145146 88 360 2.0 7.0 0.00 0.00 0.00 76 1017.3
20260902144646 88 46 3.0 6.0 0.00 0.00 0.00 78 1017.3
20260902144146 88 26 3.0 7.0 0.00 0.00 0.00 77 1017.3
20260902143648 88 44 2.0 3.0 0.00 0.00 0.00 77 1017.3
20260902143146 87 85 2.0 5.0 0.00 0.00 0.00 79 1017.3
20260902142647 87 357 2.0 5.0 0.00 0.00 0.00 78 1017.3
20260902142147 87 92 4.0 6.0 0.00 0.00 0.00 80 1017.3
20260902141647 87 66 5.0 7.0 0.00 0.00 0.00 80 1017.6
20260902141147 87 49 3.0 6.0 0.00 0.00 0.00 80 1017.3
20260902140649 86 29 4.0 8.0 0.00 0.00 0.00 81 1017.3
20260902140147 86 65 6.0 6.0 0.00 0.00 0.00 82 1017.3
20260902135647 87 66 5.0 6.0 0.00 0.00 0.00 81 1017.3
20260902135146 87 341 0.0 3.0 0.00 0.00 0.00 81 1017.3
20260902134647 86 58 2.0 4.0 0.00 0.00 0.00 83 1017.3
20260902134148 86 69 4.0 5.0 0.00 0.00 0.00 83 1017.3
20260902133646 86 84 0.0 4.0 0.00 0.00 0.00 83 1016.9
20260902133147 86 5 1.0 2.0 0.00 0.00 0.00 83 1016.9
20260902132646 85 67 2.0 3.0 0.00 0.00 0.00 86 1017.3
20260902132146 84 62 3.0 5.0 0.00 0.00 0.00 87 1016.9
20260902131647 85 32 3.0 3.0 0.00 0.00 0.00 86 1016.9
20260902131147 84 13 0.0 3.0 0.00 0.00 0.00 87 1017.3
20260902130646 84 46 1.0 3.0 0.00 0.00 0.00 88 1016.9
20260902130150 83 279 0.0 4.0 0.00 0.00 0.00 90 1017.3
20260902125647 82 348 2.0 5.0 0.00 0.00 0.00 91 1016.9
20260902125147 82 2 2.0 4.0 0.00 0.00 0.00 91 1016.6
20260902124647 82 38 4.0 5.0 0.00 0.00 0.00 91 1016.9
20260902124147 82 16 1.0 4.0 0.00 0.00 0.00 91 1016.6
20260902123647 83 335 3.0 4.0 0.00 0.00 0.00 90 1016.9
20260902123146 84 166 0.0 3.0 0.00 0.00 0.00 89 1016.6
20260902122650 83 37 1.0 5.0 0.00 0.00 0.00 90 1016.3
20260902122147 83 31 3.0 5.0 0.00 0.00 0.00 91 1016.6
20260902121646 82 19 4.0 5.0 0.00 0.00 0.00 91 1016.6
20260902121146 82 359 3.0 5.0 0.00 0.00 0.00 92 1016.6
20260902120213 81 61 3.0 6.0 0.00 0.00 0.00 94 1016.6
20260902115646 81 40 3.0 5.0 0.00 0.00 0.00 95 1016.3
20260902115147 80 7 2.0 4.0 0.00 0.00 0.00 95 1016.3
20260902114646 80 163 2.0 3.0 0.00 0.00 0.00 96 1016.3
20260902114146 80 38 2.0 3.0 0.00 0.00 0.00 97 1016.3
20260902113646 79 331 1.0 3.0 0.00 0.00 0.00 97 1015.9
20260902113147 79 209 1.0 2.0 0.00 0.00 0.00 96 1016.3
20260902112647 80 227 1.0 2.0 0.00 0.00 0.00 96 1015.9
20260902112147 80 195 0.0 1.0 0.00 0.00 0.00 95 1015.9
20260902111647 80 135 0.0 1.0 0.00 0.00 0.00 95 1015.9
20260902111146 80 117 0.0 2.0 0.00 0.00 0.00 96 1015.9
20260902110647 79 44 0.0 2.0 0.00 0.00 0.00 96 1015.9
20260902110147 79 190 0.0 0.0 0.00 0.00 0.00 96 1015.9
20260902105647 80 201 0.0 1.0 0.00 0.00 0.00 96 1015.9
20260902105150 80 224 0.0 1.0 0.00 0.00 0.00 95 1015.9
20260902104646 80 157 0.0 1.0 0.00 0.00 0.00 95 1015.6
20260902104147 80 117 0.0 0.0 0.00 0.00 0.00 95 1015.6
20260902103647 80 23 0.0 2.0 0.00 0.00 0.00 96 1015.6
20260902103146 80 157 0.0 1.0 0.00 0.00 0.00 95 1015.6
20260902102646 80 218 0.0 1.0 0.00 0.00 0.00 95 1015.6
20260902102146 80 142 0.0 1.0 0.00 0.00 0.00 95 1015.6
20260902101646 80 104 0.0 1.0 0.00 0.00 0.00 95 1015.6
20260902101147 80 22 1.0 2.0 0.00 0.00 0.00 96 1015.6
20260902100646 80 135 0.0 1.0 0.00 0.00 0.00 95 1015.6
20260902100147 80 89 0.0 1.0 0.00 0.00 0.00 95 1015.6
20260902095646 79 217 0.0 1.0 0.00 0.00 0.00 95 1015.6
20260902095147 80 135 0.0 0.0 0.00 0.00 0.00 95 1015.6
20260902094646 80 135 0.0 1.0 0.00 0.00 0.00 95 1015.6
20260902094147 79 42 1.0 2.0 0.00 0.00 0.00 95 1015.2
20260902093647 79 124 0.0 2.0 0.00 0.00 0.00 96 1015.2
20260902093146 79 242 0.0 1.0 0.00 0.00 0.00 96 1015.2
20260902092647 79 213 2.0 2.0 0.00 0.00 0.00 96 1015.2
20260902092146 79 216 1.0 1.0 0.00 0.00 0.00 95 1015.2
20260902091647 79 224 0.0 1.0 0.00 0.00 0.00 95 1015.6
20260902091146 80 221 1.0 1.0 0.00 0.00 0.00 95 1015.2
20260902090647 80 215 1.0 2.0 0.00 0.00 0.00 95 1015.2
20260902090146 80 201 1.0 1.0 0.00 0.00 0.00 94 1015.2
20260902085646 80 205 0.0 2.0 0.00 0.00 0.00 93 1015.2
20260902085147 80 89 0.0 2.0 0.00 0.00 0.00 94 1015.2
20260902084647 80 75 2.0 3.0 0.00 0.00 0.00 94 1015.2
20260902084147 80 67 1.0 2.0 0.00 0.00 0.00 94 1015.2
20260902083646 80 89 1.0 2.0 0.00 0.00 0.00 94 1015.2
20260902083147 80 72 1.0 2.0 0.00 0.00 0.00 94 1014.9
20260902082646 79 87 0.0 2.0 0.00 0.00 0.00 95 1015.2
20260902082146 79 103 2.0 3.0 0.00 0.00 0.00 96 1014.9
20260902081646 79 199 0.0 1.0 0.00 0.00 0.00 95 1015.2
20260902081147 79 233 2.0 2.0 0.00 0.00 0.00 96 1015.2
20260902080646 79 226 1.0 2.0 0.00 0.00 0.00 95 1015.2
20260902080146 79 214 0.0 2.0 0.00 0.00 0.00 95 1015.2
20260902075646 79 218 0.0 1.0 0.00 0.00 0.00 95 1015.2
20260902075147 79 230 0.0 2.0 0.00 0.00 0.00 95 1015.2
20260902074647 79 236 1.0 2.0 0.00 0.00 0.00 95 1014.9
20260902074146 79 227 1.0 1.0 0.00 0.00 0.00 94 1015.2
20260902073648 80 234 0.0 1.0 0.00 0.00 0.00 94 1015.2
20260902073148 80 226 1.0 2.0 0.00 0.00 0.00 94 1015.2
20260902072646 80 215 1.0 2.0 0.00 0.00 0.00 94 1015.2
20260902072147 80 194 1.0 2.0 0.00 0.00 0.00 94 1015.2
20260902071647 80 176 1.0 1.0 0.00 0.00 0.00 93 1015.2
20260902071146 80 186 1.0 2.0 0.00 0.00 0.00 93 1015.2
20260902070646 80 169 2.0 2.0 0.00 0.00 0.00 93 1015.6
20260902070147 80 186 0.0 2.0 0.00 0.00 0.00 93 1015.6
20260902065646 80 178 1.0 2.0 0.00 0.00 0.00 93 1015.6
20260902065146 80 185 1.0 2.0 0.00 0.00 0.00 93 1015.2
20260902064646 80 177 2.0 2.0 0.00 0.00 0.00 93 1015.6
20260902064146 80 179 1.0 2.0 0.00 0.00 0.00 92 1015.6
20260902063650 80 180 1.0 2.0 0.00 0.00 0.00 92 1015.6
20260902063146 80 176 1.0 2.0 0.00 0.00 0.00 92 1015.6
20260902062646 80 201 1.0 2.0 0.00 0.00 0.00 92 1015.6
20260902062147 80 177 1.0 2.0 0.00 0.00 0.00 92 1015.6
20260902061647 80 163 2.0 2.0 0.00 0.00 0.00 91 1015.6
20260902061146 80 185 1.0 2.0 0.00 0.00 0.00 91 1015.6
20260902060647 80 170 2.0 2.0 0.00 0.00 0.00 91 1015.6
20260902060149 81 170 2.0 2.0 0.00 0.00 0.00 91 1015.6
20260902055649 81 184 1.0 3.0 0.00 0.00 0.00 90 1015.9
20260902055146 81 160 2.0 2.0 0.00 0.00 0.00 90 1015.6
20260902054646 81 166 1.0 3.0 0.00 0.00 0.00 89 1015.6
20260902054147 81 152 2.0 3.0 0.00 0.00 0.00 89 1015.6
20260902053646 81 140 3.0 3.0 0.00 0.00 0.00 90 1015.9
20260902053147 81 66 1.0 2.0 0.00 0.00 0.00 89 1015.6
20260902052647 81 166 0.0 2.0 0.00 0.00 0.00 89 1015.9
20260902052147 81 130 1.0 2.0 0.00 0.00 0.00 89 1015.9
20260902051647 81 72 1.0 2.0 0.00 0.00 0.00 90 1015.9
20260902051147 81 77 0.0 2.0 0.00 0.00 0.00 90 1015.9
20260902050648 81 15 0.0 1.0 0.00 0.00 0.00 90 1015.6
20260902050146 81 67 0.0 1.0 0.00 0.00 0.00 90 1015.9
20260902045647 81 120 0.0 2.0 0.00 0.00 0.29 90 1015.6
20260902045146 81 40 0.0 2.0 0.00 0.00 0.29 89 1015.6
20260902044647 81 93 2.0 3.0 0.00 0.00 0.29 89 1015.6
20260902044146 81 153 3.0 4.0 0.00 0.00 0.29 89 1015.6
20260902043646 82 145 3.0 4.0 0.00 0.00 0.29 89 1015.9
20260902043147 82 140 3.0 3.0 0.00 0.00 0.29 89 1015.9
20260902042646 82 122 1.0 4.0 0.00 0.00 0.29 89 1015.6
20260902042146 82 157 2.0 4.0 0.00 0.00 0.29 89 1015.9
20260902041646 82 153 3.0 3.0 0.00 0.00 0.29 89 1015.6
20260902041147 82 160 3.0 4.0 0.00 0.00 0.29 89 1015.9
20260902040646 82 162 2.0 4.0 0.00 0.00 0.29 88 1015.9
20260902040147 82 139 2.0 3.0 0.00 0.00 0.29 88 1015.9
20260902035648 82 141 3.0 3.0 0.00 0.00 0.29 89 1015.9
20260902035147 82 153 1.0 3.0 0.00 0.00 0.29 89 1016.3
20260902034647 82 171 3.0 4.0 0.00 0.00 0.29 89 1016.3
20260902034146 82 133 3.0 3.0 0.00 0.00 0.29 89 1015.9